Flag for U.S.A. Weather past 2 weeks in Wake Island, Wake Island, U.S.A.

82 °F

Passing clouds.

Feels Like: 92 °F
Forecast: 82 / 87 °F
Wind: 21 mph from East

Location: Wake Island Airfld

Current Time: Oct 11, 2015 at 1:33:22 AM

Latest Report: Oct 11, 2015 at 1:03 AM

Visibility: N/A

Pressure: 29.85 "Hg

Humidity: 89%

Dew point: 79 °F

Location of Wake IslandLocation

Historic Weather in Wake Island — Graph


Wake Island temperature yesterday

Maximum temperature yesterday: 88 °F (at 1:58 PM)
Minimum temperature yesterday: 80 °F (at 12:58 AM)
Average temperature yesterday: 84 °F

Past Weeks' High & Low Weather Summary

High89 °F (Sep 30, 2:58 PM)100% (Sep 26, 8:01 AM)29.94 "Hg (Sep 26, 8:01 AM)
Low77 °F (Oct 6, 2:03 AM)61% (Sep 28, 12:58 PM)29.19 "Hg (Oct 3, 4:03 PM)
Average83 °F86%29.70 "Hg
* Reported Sep 25 11:58 PM — Oct 10 11:58 PM, Wake Island, Weather by CustomWeather, © 2015

Note: Actual official high and low records may vary slightly from our data, if they occured in-between our weather recording intervals... More about our weather records


Wake Island weather history for previous 24 hours

Time TempWeatherWind HumidityBarometerVisibility
11:58 PM
Sat, Oct 10
82 °FClear.21 mph89%29.89 "HgN/A
10:58 PM82 °FPassing clouds.20 mph89%29.90 "HgN/A
9:58 PM82 °FClear.20 mph88%29.89 "HgN/A
8:58 PM82 °FClear.16 mph89%29.89 "HgN/A
7:58 PM81 °FPassing clouds.16 mph92%29.87 "HgN/A
6:58 PM83 °FPassing clouds.16 mph87%29.85 "HgN/A
5:58 PM84 °FScattered clouds.18 mph84%29.82 "HgN/A
4:58 PM85 °FBroken clouds.17 mph82%29.80 "Hg6 mi
3:58 PM88 °FSunny.22 mph74%29.78 "HgN/A
2:58 PM88 °FBroken clouds.21 mph76%29.78 "HgN/A
1:58 PM88 °FScattered clouds.21 mph74%29.78 "HgN/A
12:58 PM87 °FScattered clouds.23 mph78%29.80 "HgN/A
11:58 AM87 °FPassing clouds.23 mph77%29.83 "HgN/A
10:58 AM86 °FScattered clouds.22 mph84%29.85 "HgN/A
9:58 AM82 °FPartly sunny.16 mph89%29.85 "HgN/A
8:58 AM85 °FPassing clouds.18 mph81%29.83 "HgN/A
7:58 AM84 °FPassing clouds.17 mph84%29.82 "HgN/A
6:58 AM83 °FClear.13 mph86%29.79 "HgN/A
5:58 AM83 °FPassing clouds.20 mph85%29.77 "HgN/A
4:58 AM83 °FPassing clouds.16 mph87%29.76 "HgN/A
3:58 AM83 °FPassing clouds.15 mph88%29.76 "HgN/A
2:58 AM82 °FPassing clouds.14 mph91%29.77 "HgN/A
2:01 AM81 °FFog.9 mph94%29.76 "Hg6 mi
1:58 AM81 °FLight rain. Fog.14 mph94%29.78 "Hg6 mi
1:03 AM81 °FLight rain. Fog.10 mph94%29.78 "Hg6 mi
Weather by CustomWeather, © 2015

See weather overviewHow to use our weather pages